Location: An Tulaigh
(53.1928°N, 8.1647°W)
Time: 23:15:41
(UTC+00:00)

Cosmos 2237 Rocket - Pass Details

Date: 15 May 2026
Orbit: 834 x 849 km, 71.0° (Epoch: 11 June)

Event Time Altitude Azimuth Distance (km) Brightness Sun altitude
Rises 22:33:35 0° 327° (NNW) 3,423 7.4 -13.6°
Reaches altitude 10° 22:36:18 10° 338° (NNW) 2,483 6.1 -13.8°
Maximum altitude 22:41:25 33° 41° (NE) 1,398 3.6 -14.1°
Drops below altitude 10° 22:46:29 10° 105° (ESE) 2,464 4.3 -14.4°
Enters shadow 22:46:56 - 107° (ESE) 2,610 4.4 -14.5°
